Regional Weather Roundup
Issued by NWS

Home | Current Version | Previous Version | Graphics & Text | Print | Product List | Glossary On
Versions: 1 2 3 4 5 6 7 8 9 10 11 12 13 14 15 16 17 18 19 20 21 22 23 24 25 26 27 28 29 30 31 32 33 34 35 36 37 38 39 40 41 42 43 44 45 46 47 48 49 50
000
ASUS43 KIND 231259
RWRIN

WEATHER ROUNDUP FOR INDIANA
NATIONAL WEATHER SERVICE INDIANAPOLIS IN
900 AM EDT WED MAY 23 2018

NOTE: "FAIR" INDICATES FEW OR NO CLOUDS BELOW 12,000 FEET WITH NO
SIGNIFICANT WEATHER AND/OR OBSTRUCTIONS TO VISIBILITY.

* - STATION DOES NOT REPORT WEATHER SUCH AS PRECIPITATION OR FOG.

+ - STATION NOT QUALITY CONTROLLED BY THE NATIONAL WEATHER SERVICE.
    USE DATA WITH CAUTION...ESPECIALLY DEWPOINT AND RELATIVE
    HUMIDITY OBSERVATIONS.

INZ001>003-010>013-019-020-231400-
NORTHWEST INDIANA

CITY           SKY/WX    TMP DP  RH WIND       PRES   REMARKS
MICHIGAN CITY+ FAIR      54  54 100 CALM      30.20S
MONTICELLO +   CLOUDY    56  55  95 CALM      30.19R FOG

$$

LMZ046-743>745-231400-
SOUTHERN LAKE MICHIGAN

STATION/POSITION TIME  TEMP    WIND        PRES    WAVE
                       AIR SEA DIR/SP/G            HT
                 (UTC) (F)     (DEG/KT/KT) (MB)    (FT)
BURNS HARBOR     1240   54        CALM     1023.0R
MICHIGAN CITY    1230   53     350/  1/  1   N/A
5NW MICH CITY    1250   50 54   CALM  /  2   N/A     0

$$

INZ004-005-014>016-021>024-231400-
NORTH CENTRAL INDIANA

CITY           SKY/WX    TMP DP  RH WIND       PRES   REMARKS
ELKHART        FAIR      59  54  82 CALM      30.19R
GOSHEN           N/A     59  55  87 CALM      30.19R
PERU/GRISSOM   FAIR      61  61 100 CALM      30.18R
SOUTH BEND     FAIR      58  53  84 CALM      30.19R

$$

INZ006>009-017-018-025>027-231400-
NORTHEAST INDIANA

CITY           SKY/WX    TMP DP  RH WIND       PRES   REMARKS
ANGOLA *+      FAIR      61  55  82 N5        30.19R
FORT WAYNE     FAIR      63  57  81 VRB3      30.19R
KENDALLVILLE +   N/A    N/A N/A N/A N3        30.20

$$

INZ028-029-035-036-043>045-051>053-231400-
WEST CENTRAL INDIANA

CITY           SKY/WX    TMP DP  RH WIND       PRES   REMARKS
CRAWFORDSVL +  CLOUDY    57  57 100 NE6       30.18S FOG
GREENCASTLE +  FAIR      63  57  82 E5        30.18R
LAFAYETTE      CLOUDY    56  56 100 E5        30.18S FOG
TERRE HAUTE    FAIR      65  59  81 NE8       30.16R

$$

INZ030>032-037>040-046>048-054>057-064-065-231400-
CENTRAL INDIANA

CITY           SKY/WX    TMP DP  RH WIND       PRES   REMARKS
ANDERSON       FAIR      62  57  83 CALM      30.18R
INDIANAPOLIS   FAIR      65  57  75 NE7       30.16R
-EAGLE CREEK   FAIR      64  57  78 E6        30.16R
KOKOMO +       FAIR      61  57  87 E5        30.19R
MT COMFORT *+  FAIR      63  61  94 NE6       30.17S
SHELBYVILLE    FAIR      66  58  75 E8        30.15R

$$

INZ033-034-041-042-049-050-058-059-231400-
EAST CENTRAL INDIANA

CITY           SKY/WX    TMP DP  RH WIND       PRES   REMARKS
MUNCIE         FAIR      63  57  81 E10       30.18R
RICHMOND +     FAIR      61  59  94 NE9       30.17R

$$

INZ060-061-067>069-081>083-085>088-231400-
SOUTHWEST INDIANA

CITY           SKY/WX    TMP DP  RH WIND       PRES   REMARKS
EVANSVILLE     FAIR      71  62  73 NE6       30.13R
HUNTINGBURG +  FAIR      69  62  78 NE6       30.13R

$$

INZ062-063-066-070>080-084-089>092-231400-
SOUTH CENTRAL AND SOUTHEAST INDIANA

CITY           SKY/WX    TMP DP  RH WIND       PRES   REMARKS
BLOOMINGTON    FAIR      66  59  78 NE6       30.15R
FRENCH LICK *+ FAIR      64  54  68 NE6       30.14R
SEYMOUR +      FAIR      68  59  73 N3        30.14R

$$





USA.gov is the U.S. government's official web portal to all federal, state and local government web resources and services.